Regional Weather Roundup
Issued by NWS New Orleans/Baton Rouge, LA

Home | Current Version | Previous Version | Text Only | Print | Product List | Glossary On
Versions: 1 2 3 4 5 6 7 8 9 10 11 12 13 14 15 16 17 18 19 20 21 22 23 24 25 26 27 28 29 30 31 32 33 34 35 36 37 38 39 40 41 42 43 44 45 46 47 48 49 50
173
ASUS44 KLIX 212110
RWRLIX
NEW ORLEANS REGIONAL WEATHER ROUNDUP
NATIONAL WEATHER SERVICE NEW ORLEANS LA
400 PM CDT MON JUL 21 2014

NOTE: "FAIR" INDICATES FEW OR NO CLOUDS BELOW 12,000 FEET WITH NO
      SIGNIFICANT WEATHER AND/OR OBSTRUCTIONS TO VISIBILITY.
      SKY/WX - SKY CONDITION AND SIGNIFICANT WEATHER.
      TMP - AIR TEMPERATURE.     DP    - DEWPOINT TEMPERATURE.
      RH  - RELATIVE HUMIDITY.   PRES  - PRESSURE.
      HI  - HEAT INDEX.          WCI   - WIND CHILL INDEX.

*  THESE STATIONS ARE NOT NWS OR FAA STATIONS AND ARE NOT UNDER
   NWS QUALITY CONTROL.

LAZ038-040-048-061>063-065>067-069-212200-
SOUTHEAST LOUISIANA

CITY           SKY/WX    TMP DP  RH WIND       PRES   REMARKS
N.O. AUDUBON     N/A     93  71  48 MISG        N/A  HX 100
N.O. INTL ARPT MOSUNNY   89  70  53 NW8       30.00F
N.O. LAKEFRONT SUNNY     88  71  57 N6        30.00F
N.O. DOWNTOWN*   N/A     90  70  51 NW5       30.00F HX  95
SLIDELL        MOSUNNY   89  69  51 NW6       29.99F
BATON ROUGE    MOSUNNY   89  71  55 VRB6      30.00F HX  95
BOOTHVILLE     MOSUNNY   86  75  69 NE5       30.01F HX  95
BELLE CHASSE   PTSUNNY   89  68  49 VRB7      29.99F
BOGALUSA*        N/A     89  67  48 N6        30.01F
GALLIANO*      NOT AVBL
NEW ROADS*       N/A     88  72  60 NW7       30.01S HX  95
GONZALES*        N/A     90  73  57 NW6       29.99F HX  97
HAMMOND*       MOSUNNY   90  66  45 NW7       30.02S
HOUMA*         PTSUNNY   91  70  49 NW5       30.00F HX  97
PORT FOURCHON* CLEAR     86  75  70 W9        30.02F HX  95

$$

MSZ070-080>082-212200-
SOUTHERN MISSISSIPPI

CITY           SKY/WX    TMP DP  RH WIND       PRES   REMARKS
MCCOMB         MOSUNNY   88  67  49 NW6       30.01F
GULFPORT       MOSUNNY   93  68  43 NW7       29.98F HX  97
BILOXI         MOSUNNY   91  69  49 VRB5      29.98F HX  95
PASCAGOULA     SUNNY     90  68  48 VRB5      29.97F
STENNIS ARPT*  MOSUNNY  N/A N/A N/A NW9       29.98F

$$

COASTAL OBSERVATIONS
LAKE AND NEARSHORE STATIONS

STATION/POSITION TIME  TEMP    WIND        PRES    WAVE
                       AIR SEA DIR/SP/G            HT/PER
                 (UTC) (F)     (DEG/KT/KT) (MB)    (FT/S)
PASCAGOULA       2100   87     230/ 10/ 15 1014.7
WAVELAND YACHT   2100   87     360/  5/  7 1015.0
GRAND ISLE       2100   86 84  140/  3/  5 1016.7
SOUTHWEST PASS   2100   92 85  310/  3/  8 1016.6
NEW CANAL        2100   85 84   40/  3/  4 1016.4
SHELL BEACH      2100   85 80  320/  5/  6 1015.8

OFFSHORE STATIONS

STATION/POSITION TIME  TEMP    WIND        PRES    WAVE
                       AIR SEA DIR/SP/G            HT/PER
                 (UTC) (F)     (DEG/KT/KT) (MB)    (FT/S)
64 S DAUPHIN ISL 2010   82 85  300/  2/  4 1016.6

$$




USA.gov is the U.S. government's official web portal to all federal, state and local government web resources and services.